"Pseudo-MPEC" for P10IjMB

Created 2018 Jul 17 18:18:05 UT using Find_Orb

Click here for an explanation of pseudo-MPECs

 
 Astrometry: 
     P10IjMB  C2018 07 10gkAstrometry_WISj+!(C;kSDGIht=\q`$i6u5#@N4D[XfZDcu`.F51
     P10IjMB  C2018 07 10N*/u-QI%4telcVAR3redacted;bH`aZ(see:Fki`qEcFRno1(iQOF51
     P10IjMB  C2018 07 10,ap^t2vrWNbKtS;5-fZJ3f?\x!OP26!Kd3ia`Irh1w=?8RLNEOCPF51

Station data:
(F51) Pan-STARRS 1, Haleakala  (N20.707235 W156.255910)  US/Hawaii.
   Observers N. Primak, A. Schultz, S. Watters, J. Thiel, T. Goggia. Measurer
   PS1 Science Consortium. 1.8-m Ritchey-Chrétien + CCD.

Orbital elements:  P10IjMB
   Perihelion 2018 May 19.086778 +/- 29.6 TT =  2:04:57 (JD 2458257.586778)
Epoch 2018 Jul 10.0 TT = JDT 2458309.5   Earth MOID: 0.0096   AutoNEOCP
M  44.53720 +/- 34                  (J2000 ecliptic)
n   0.85791649 +/- 0.536            Peri.  311.62056 +/- 60
a   1.09691431 +/- 0.457            Node   282.84263 +/- 34
e   0.0881055 +/- 0.244             Incl.    5.24492 +/- 20
P   1.15/419.61d           H 27.9   G  0.15   U 12.3  SR
q 1.00027002 +/- 0.332    Q 1.19355859 +/- 29.3
From 3 observations 2018 July 10 (32.7 min); mean residual 0".26
Residuals in arcseconds: 
180710 F51  .22-  .13-    180710 F51  .44+  .27+    180710 F51  .22-  .14-    

Ephemerides (geocentric):
Date (UTC) HH   RA              Dec         delta   r     elong  mag " sig PA
---- -- -- --  -------------   -----------  ------ ------ -----  --- ---- ---
2018 07 17 18  17 39 00.333   +08 44 19.26  .03483 1.0419 136.6 22.4  37d 173
2018 07 17 19  17 39 16.963   +08 46 57.39  .03490 1.0420 136.6 22.4  37d 173
2018 07 17 20  17 39 33.532   +08 49 34.68  .03498 1.0420 136.6 22.4  37d 173
2018 07 17 21  17 39 50.039   +08 52 11.12  .03506 1.0421 136.6 22.4  37d 173
2018 07 17 22  17 40 06.487   +08 54 46.72  .03514 1.0421 136.6 22.4  37d 173
2018 07 17 23  17 40 22.873   +08 57 21.50  .03521 1.0422 136.6 22.4  37d 173
2018 07 18 00  17 40 39.200   +08 59 55.45  .03529 1.0422 136.6 22.4  37d 173
2018 07 18 01  17 40 55.468   +09 02 28.57  .03537 1.0423 136.6 22.4  37d 173
2018 07 18 02  17 41 11.676   +09 05 00.88  .03545 1.0423 136.5 22.4  37d 173
2018 07 18 03  17 41 27.825   +09 07 32.37  .03553 1.0424 136.5 22.4  37d 173
2018 07 18 04  17 41 43.915   +09 10 03.06  .03560 1.0424 136.5 22.4  38d 173
2018 07 18 05  17 41 59.947   +09 12 32.94  .03568 1.0425 136.5 22.4  38d 173
2018 07 18 06  17 42 15.920   +09 15 02.02  .03576 1.0425 136.5 22.4  38d 173
2018 07 18 07  17 42 31.836   +09 17 30.31  .03584 1.0426 136.5 22.4  38d 173
2018 07 18 08  17 42 47.695   +09 19 57.81  .03592 1.0427 136.5 22.4  38d 173
2018 07 18 09  17 43 03.497   +09 22 24.51  .03599 1.0427 136.5 22.5  38d 173
2018 07 18 10  17 43 19.241   +09 24 50.44  .03607 1.0428 136.5 22.5  38d 173
2018 07 18 11  17 43 34.929   +09 27 15.59  .03615 1.0428 136.5 22.5  38d 173
2018 07 18 12  17 43 50.561   +09 29 39.97  .03623 1.0429 136.5 22.5  38d 173
2018 07 18 13  17 44 06.137   +09 32 03.57  .03631 1.0429 136.5 22.5  38d 173
2018 07 18 14  17 44 21.658   +09 34 26.41  .03639 1.0430 136.5 22.5  38d 173
2018 07 18 15  17 44 37.123   +09 36 48.49  .03647 1.0430 136.5 22.5  38d 173
2018 07 18 16  17 44 52.533   +09 39 09.82  .03654 1.0431 136.4 22.5  38d 173
2018 07 18 17  17 45 07.888   +09 41 30.39  .03662 1.0431 136.4 22.5  38d 173
2018 07 18 18  17 45 23.189   +09 43 50.21  .03670 1.0432 136.4 22.5  38d 173
2018 07 18 19  17 45 38.436   +09 46 09.29  .03678 1.0432 136.4 22.5  38d 173
2018 07 18 20  17 45 53.629   +09 48 27.63  .03686 1.0433 136.4 22.5  38d 173
2018 07 18 21  17 46 08.768   +09 50 45.23  .03694 1.0433 136.4 22.5  38d 173
2018 07 18 22  17 46 23.854   +09 53 02.10  .03702 1.0434 136.4 22.5  38d 173
2018 07 18 23  17 46 38.887   +09 55 18.24  .03710 1.0434 136.4 22.5  38d 173
2018 07 19 00  17 46 53.867   +09 57 33.66  .03718 1.0435 136.4 22.5  38d 173
2018 07 19 01  17 47 08.795   +09 59 48.36  .03726 1.0435 136.4 22.5  39d 173
2018 07 19 02  17 47 23.671   +10 02 02.35  .03734 1.0436 136.4 22.5  39d 173
2018 07 19 03  17 47 38.495   +10 04 15.62  .03741 1.0436 136.4 22.5  39d 173
2018 07 19 04  17 47 53.267   +10 06 28.18  .03749 1.0437 136.4 22.5  39d 173
2018 07 19 05  17 48 07.987   +10 08 40.04  .03757 1.0438 136.3 22.6  39d 173
2018 07 19 06  17 48 22.657   +10 10 51.20  .03765 1.0438 136.3 22.6  39d 173
2018 07 19 07  17 48 37.276   +10 13 01.66  .03773 1.0439 136.3 22.6  39d 173
2018 07 19 08  17 48 51.844   +10 15 11.43  .03781 1.0439 136.3 22.6  39d 173
2018 07 19 09  17 49 06.363   +10 17 20.51  .03789 1.0440 136.3 22.6  39d 173
2018 07 19 10  17 49 20.831   +10 19 28.90  .03797 1.0440 136.3 22.6  39d 173
2018 07 19 11  17 49 35.249   +10 21 36.62  .03805 1.0441 136.3 22.6  39d 173
2018 07 19 12  17 49 49.618   +10 23 43.65  .03813 1.0441 136.3 22.6  39d 173
2018 07 19 13  17 50 03.937   +10 25 50.02  .03821 1.0442 136.3 22.6  39d 173
2018 07 19 14  17 50 18.208   +10 27 55.71  .03829 1.0442 136.3 22.6  39d 173
2018 07 19 15  17 50 32.430   +10 30 00.73  .03837 1.0443 136.3 22.6  39d 173
2018 07 19 16  17 50 46.603   +10 32 05.10  .03845 1.0443 136.3 22.6  39d 173
2018 07 19 17  17 51 00.729   +10 34 08.80  .03854 1.0444 136.3 22.6  39d 173